teraz jesteś w wynikionline.pl       przejdź do: chronosports.plbiurozawodow.pl            polskienglish

wyniki online i klasyfikacje zawodów sportowych

Wyniki oficjalne zawodów wróć

Wyniki oficjalne Legionowska Dycha 2014 w dniu 08.06.2014

Tabela wyników: open

open - K16 - K20 - K30 - K40 - K50 - K60 - M16 - M20 - M30 - M40 - M50 - M60 - M70 - open kobiet - open mężczyzn

Tabela wyników: open

miejsce numer zawodnik rocznik miejscowość kraj klub wynik netto strata
200 205 MARIUSZ WIŚNIEWSKI 1972 LEGIONOWO 00:50:23 00:49:52 00:19:46
201 115 WALDEMAR POLEWACZ 1976 ŁAJSKI 00:50:26 00:50:15 00:19:49
202 542 JAKUB SZTEJNERT 1972 SKIERDY 00:50:27 00:50:14 00:19:50
202 427 ARTUR WAGNER 1977 LEGIONOWO 00:50:27 00:50:03 00:19:50
204 290 SŁAWOMIR DŁUGOŁĘCKI 1960 ZARĘBY KOSCIELNE 00:50:29 00:50:00 00:19:52
205 191 PIOTR HRYSZKIEWICZ 1974 CHOTOMÓW 00:50:30 00:50:11 00:19:53
206 200 PRZEMYSŁAW KWIECIEŃ 1978 LEGIONOWO 00:50:31 00:50:22 00:19:54
207 274 PAWEŁ CABAJ 1975 WARSZAWA 00:50:32 00:50:12 00:19:55
208 35 ADAM WITKOWSKI 1980 ZEGRZE POŁUDNIOWE 00:50:33 00:50:14 00:19:56
209 472 TOMASZ GRZEŚKIEWICZ 1979 SOMIANKA 00:50:34 00:50:21 00:19:57
210 202 MACIEJ CZAJKOWSKI 1983 RADZYMIN 00:50:35 00:50:19 00:19:58
211 52 MAJA MICHALAK 1996 WARSZAWA 00:50:37 00:50:22 00:20:00
211 510 MARCIN CZAPLINSKI 1988 WARSZAWA 00:50:37 00:50:22 00:20:00
211 184 PAWEŁ STARTEK 1977 LEGIONOWO 00:50:37 00:50:18 00:20:00
214 265 AGATA PIETRAŚ 1984 WARSZAWA 00:50:38 00:50:30 00:20:01
215 144 PIOTR URBANSKI 1971 WARSZAWA 00:50:40 00:50:10 00:20:03
216 399 PIOTR PACHNIK 1976 WARSZAWA 00:50:43 00:50:38 00:20:06
217 540 DAREK TRAFAS 1967 PŁOCK 00:50:51 00:50:49 00:20:14
217 85 PIOTR DREWNIK 1971 JABŁONNA 00:50:51 00:50:46 00:20:14
219 123 PIOTR OKRASA 1976 LEGIONOWO 00:50:52 00:50:45 00:20:15
219 473 JACEK BEDNAREK 1971 WARSZAWA 00:50:52 00:50:19 00:20:15
221 453 DAMIAN KULIŃSKI 1989 RADZYMIN 00:50:53 00:50:46 00:20:16
222 176 MAREK GOŁASZEWSKI 1958 LEGIONOWO 00:51:02 00:50:53 00:20:25
223 364 JAN BUDZIŁEK 1979 WARSZAWA 00:51:06 00:51:06 00:20:29
223 232 MAREK BUGIERA 1963 LEGIONOWO 00:51:06 00:51:04 00:20:29
225 299 ROBERT WÓJCIK 1975 WARSZAWA 00:51:08 00:51:08 00:20:31
226 307 PRZEMEK ROMANÓW 1982 RAJSZEW 00:51:10 00:50:40 00:20:33
227 253 JAKUB DEWISZEK 1997 WARSZAWA 00:51:13 00:50:41 00:20:36
228 271 MAŁGORZATA BRODOWSKA 1988 ŁAJSKI 00:51:18 00:51:12 00:20:41
229 215 MARCIN ŁĄCZKOWSKI 1978 LEGIONOWO 00:51:23 00:51:07 00:20:46
230 485 JOANNA SKULTECKA 1981 WARSZAWA 00:51:24 00:51:17 00:20:47
231 127 WOJCIECH ŚWIĘCICKI 1963 WARSZAWA 00:51:32 00:51:16 00:20:55
232 249 ŁUKASZ TACIK 1975 WARSZAWA 00:51:33 00:51:03 00:20:56
233 226 ADAM WILGAT 1971 ZĄBKI 00:51:34 00:51:03 00:20:57
234 61 PRZEMYSŁAW GĄGAŁA 1969 WARSZAWA 00:51:35 00:50:56 00:20:58
235 296 ELŻBIETA CICHOŃSKA 1966 WARSZAWA 00:51:37 00:51:31 00:21:00
236 470 KAROL PODBIELSKI 1979 WARSZAWA 00:51:41 00:51:21 00:21:04
237 462 MICHAŁ ZBROWSKI 1982 PRUSZKÓW 00:51:47 00:51:21 00:21:10
238 175 MARCIN CZARNOWSKI 1976 JABŁONNA 00:51:49 00:51:22 00:21:12
239 64 MAREK SZULKOWSKI 1970 JÓZEFÓW 00:51:50 00:51:34 00:21:13
239 483 JERZY PAWLUK 1971 BIAŁA PODLASKA 00:51:50 00:51:14 00:21:13
241 359 MARIUSZ BŁASZCZAK 1980 GRODZISK MAZOWIECKI 00:52:01 00:51:28 00:21:24
242 515 GRZEGORZ KACZYŃSKI 1972 WYSZKÓW 00:52:03 00:51:52 00:21:26
243 59 KRZYSZTOF JAKUBIAK 1966 DABROWA CHOTOMOWSKA 00:52:04 00:51:45 00:21:27
244 28 ARTUR SZEWCZYK 1978 LEGIONOWO 00:52:07 00:51:53 00:21:30
245 251 ARKADIUSZ JAROSZ 1967 LEGIONOWO 00:52:11 00:52:00 00:21:34
246 87 RAFAŁ CYRNY 1977 WARSZAWA 00:52:17 00:51:57 00:21:40
247 66 JAKUB NOWAKOWSKI 1987 LEGIONOWO 00:52:18 00:51:40 00:21:41
248 18 MARIUSZ KARWOWSKI 1973 CHOTOMÓW 00:52:21 00:51:53 00:21:44
249 353 GRZEGORZ TRACZYK 1982 WARSZAWA 00:52:22 00:52:05 00:21:45

« poprzednia 1 2 3 4 5 6 7 8 9 10 następna »

Statystyka wyników w open

najlepszy wynik 00:30:37
najgorszy wynik 01:26:10

Statystyka prędkości w open

najwyższa śr. prędkość 19.59 km/h
najniższa śr. prędkość 6.96 km/h

Statystyka tempa w open

najlepsze śr. tempo 00:03:04 min/km
najgorsze śr. tempo 00:08:38 min/km